Home   Weather   Santa Cruz   Past weeks
Flag for Bolivia

Past Weather in Santa Cruz, Bolivia — Yesterday and Last 2 Weeks

Now
64 °F

Mostly cloudy.


Feels Like: 64 °F
Forecast: 81 / 67 °F
Wind: 17 mph from South

Location: Viru-Viru

Current Time: Oct 19, 2019 at 5:53:51 am

Latest Report: Oct 19, 2019 at 5:00 am


Visibility: N/A

Pressure: 30.07 "Hg

Humidity: 83%

Dew Point: 59 °F

Location of Santa CruzLocation

Past Weather in Santa Cruz — Graph

°F

Santa Cruz Temperature Yesterday

Maximum temperature yesterday: 88 °F (at 3:00 pm)
Minimum temperature yesterday: 68 °F (at 6:00 am)
Average temperature yesterday: 76 °F

High & Low Weather Summary for the Past Weeks

 TemperatureHumidityPressure
High97 °F (Oct 10, 2:00 pm)100% (Oct 5, 1:00 am)30.12 "Hg (Oct 5, 1:00 am)
Low59 °F (Oct 6, 3:00 am)30% (Oct 10, 2:00 pm)29.68 "Hg (Oct 12, 5:00 pm)
Average76 °F67%29.92 "Hg
* Reported Oct 4 4:00 am — Oct 19 4:00 am, Santa Cruz. Weather by CustomWeather, © 2019

Note: Actual official high and low records may vary slightly from our data, if they occured in-between our weather recording intervals... More about our weather records

Advertising

Santa Cruz Weather History for the Previous 24 Hours

Scroll right to see more
 ConditionsComfort  
Time TempWeatherWind HumidityBarometerVisibility
4:00 am
Sat, Oct 19
64 °FMostly cloudy.18 mph83%30.04 "HgN/A
3:00 am64 °FMostly cloudy.17 mph83%30.04 "HgN/A
2:00 am66 °FLight rain. Partly cloudy.15 mph73%30.04 "Hg6 mi
1:00 am72 °FPartly cloudy.17 mph57%30.01 "HgN/A
12:00 am72 °FPartly cloudy.15 mph61%29.98 "HgN/A
11:00 pm
Fri, Oct 18
73 °FPartly cloudy.14 mph57%30.01 "HgN/A
10:00 pm75 °FPassing clouds.14 mph57%29.98 "HgN/A
9:00 pm77 °FClear.14 mph57%29.95 "HgN/A
8:00 pm79 °FClear.13 mph54%29.92 "HgN/A
7:00 pm81 °FClear.9 mph48%29.92 "HgN/A
6:00 pm82 °FClear.12 mph45%29.89 "HgN/A
5:00 pm84 °FClear.12 mph43%29.86 "HgN/A
4:00 pm86 °FPartly sunny.13 mph40%29.86 "HgN/A
3:00 pm88 °FPartly sunny.10 mph40%29.89 "HgN/A
2:00 pm86 °FPartly sunny.15 mph40%29.92 "HgN/A
1:00 pm84 °FPartly sunny.14 mph43%29.98 "HgN/A
12:00 pm81 °FPartly sunny.12 mph48%30.01 "HgN/A
11:00 am77 °FPartly sunny.12 mph51%30.04 "HgN/A
10:00 am75 °FMostly cloudy.12 mph54%30.04 "HgN/A
9:00 am72 °FMostly cloudy.13 mph57%30.04 "HgN/A
8:00 am70 °FMostly cloudy.13 mph60%30.04 "HgN/A
7:00 am70 °FMostly cloudy.15 mph64%30.01 "HgN/A
6:00 am68 °FMostly cloudy.12 mph69%29.98 "HgN/A
5:00 am70 °FClear.3 mph94%29.95 "Hg5 mi
Weather by CustomWeather, © 2019

See weather overview